Location: ?
(35.4996°N, 139.3166°E)
Time: 15:07:38
(UTC+00:00)

Cosmos 2278 Rocket - Visible Passes

Search period start: 12 July 2024 00:00
Search period end: 22 July 2024 00:00
Orbit: 841 x 844 km, 71.0° (Epoch: 12 July)

Date Brightness Start Highest point End Pass type
(mag) Time Alt. Az. Time Alt. Az. Time Alt. Az.
12 Jul 2.5 13:47:21 63° N 13:47:21 63° N 13:52:07 10° NNE visible
12 Jul 4.7 15:29:49 10° WNW 15:31:21 11° NW 15:32:54 10° NW visible
13 Jul 2.4 13:32:26 68° NNE 13:32:26 68° NNE 13:37:22 10° NNE visible
13 Jul 4.7 15:14:38 10° WNW 15:16:33 12° NW 15:18:29 10° NNW visible
14 Jul 2.2 13:17:26 75° NNE 13:17:26 75° NNE 13:22:37 10° NNE visible
14 Jul 4.7 14:59:32 10° WNW 15:01:45 12° NW 15:04:00 10° NNW visible
15 Jul 2.1 13:02:21 83° ENE 13:02:21 83° ENE 13:07:52 10° NNE visible
15 Jul 4.7 14:44:27 10° W 14:46:57 13° NW 14:49:28 10° NNW visible
16 Jul 2.0 12:47:08 78° SSE 12:47:26 81° ESE 12:53:06 10° NNE visible
16 Jul 4.7 14:29:26 10° W 14:32:10 14° NW 14:34:55 10° NNW visible
17 Jul 2.0 12:31:47 62° S 12:32:41 77° ESE 12:38:21 10° NNE visible
17 Jul 4.7 14:14:25 10° W 14:17:22 14° NW 14:20:20 10° NNW visible
18 Jul 2.1 12:16:12 45° S 12:17:56 74° ESE 12:23:36 10° NNE visible
18 Jul 4.8 13:59:26 10° W 14:02:35 15° NW 14:05:44 10° NNW visible
19 Jul 2.1 12:00:19 30° S 12:03:11 70° ESE 12:08:49 10° NNE visible
19 Jul 4.7 13:44:28 10° W 13:47:47 16° NW 13:51:07 10° NNW visible
20 Jul 2.1 11:43:56 16° S 11:48:26 66° ESE 11:54:03 10° NNE visible
20 Jul 4.7 13:29:31 10° W 13:33:00 16° NW 13:36:30 10° NNW visible
21 Jul 2.2 11:28:08 10° S 11:33:42 63° ESE 11:39:17 10° NNE visible
21 Jul 4.7 13:14:34 10° W 13:18:12 17° NW 13:21:52 10° NNW visible
